[[{"header":{"parameterUnit":"m.s-1","parameterCategory":1,"la1":30.2991,"la2":30.254,"lo1":-89.0895,"lo2":-89.0444,"dy":0.0017,"dx":0.0017,"nx":28,"ny":28,"refTime":"2024-10-05T03:00:00:Z","depth":0,"parameterNumber":2,"parameterNumberName":"U-component_of_WINDS"},"data":[0,0,0,0,0,0,0,0,0,0,0,0,0,0,0,0,0,0,0,0,0,0,0,0,0,0,0,0,0,0,0,0,0,0,0,0,0,0,0,0,0,0,0,0,0,0,0,0,0,0,0,0,0,0,0,0,0,0,-5.5071,-5.5071,0,-5.5074,-5.5074,-5.5074,-5.4969,-5.4966,-5.4964,-5.4961,-5.4963,-5.4965,-5.4968,0,0,0,0,0,0,0,0,0,0,0,0,0,-5.4973,-5.4976,-5.5071,-5.5071,-5.5071,-5.5074,-5.5074,-5.5074,-5.497,-5.4966,-5.4963,-5.496,-5.4962,-5.4965,-5.4968,0,0,0,0,0,0,0,0,0,0,0,0,0,-5.5,-5.4976,-5.5071,-5.5019,-5.5015,-5.5074,-5.5074,-5.5074,-5.497,-5.4966,-5.4962,-5.4958,-5.4961,-5.4965,-5.4969,-5.5077,0,0,-5.4981,-5.4982,0,0,0,0,0,0,0,0,-5.4999,-5.5004,-5.5027,-5.5023,-5.5018,-5.5017,-5.504,-5.5075,-5.4972,-5.4987,-5.4961,-5.4956,-5.4984,-5.4986,-5.4996,-5.5077,-5.5077,-5.4981,-5.4984,-5.4985,-5.4986,0,0,0,0,0,0,0,-5.4997,-5.5003,-5.5072,-5.5027,-5.5022,-5.4996,-5.4995,-5.5047,-5.5009,-5.4986,-5.4978,-5.498,-5.4981,-5.4992,-5.4995,-5.5077,-5.4981,-5.4985,-5.4987,-5.4989,-5.525,-5.5255,0,0,0,0,0,0,-5.5002,-5.5002,-5.5072,-5.5072,-5.4998,-5.5001,-5.5,-5.5022,-5.5008,-5.5002,-5.4983,-5.4975,-5.4987,-5.499,-5.4995,-5.5122,-5.4985,-5.4989,-5.4991,-5.5246,-5.5251,-5.5256,0,0,0,0,0,0,-5.5001,-5.501,-5.5072,-5.5035,-5.5041,-5.5007,-5.5032,-5.5024,-5.5035,-5.5007,-5.4999,-5.5002,-5.4984,-5.4989,-5.5058,-5.5121,-5.4991,-5.4994,-5.524,-5.5247,-5.5254,-5.5378,0,0,0,0,0,0,-5.4998,-5.501,-5.5051,-5.5037,-5.5044,-5.5136,-5.5036,-5.5027,-5.5042,-5.5031,-5.5022,-5.5017,-5.4981,-5.5053,-5.5062,-5.5124,-5.4997,-5.5235,-5.5244,-5.5252,-5.5368,-5.5388,-5.5406,0,0,0,0,0,-5.4995,-5.5085,-5.5053,-5.5062,-5.5094,-5.514,-5.5143,-5.5101,-5.5048,-5.5089,-5.5071,-5.5017,-5.5113,-5.5061,-5.507,-5.5134,-5.523,-5.5241,-5.5251,-5.536,-5.5384,-5.5405,0,0,0,0,0,0,-5.5105,-5.5082,-5.5047,-5.5134,-5.514,-5.5122,-5.5172,-5.5128,-5.5149,-5.5137,-5.5084,-5.5083,-5.5161,-5.5154,-5.5097,-5.524,-5.5162,-5.5175,-5.5242,-5.5265,-5.5283,-5.5283,-5.5001,0,0,0,0,0,-5.514,-5.5179,-5.5156,-5.5236,-5.5241,-5.5207,-5.5225,-5.5192,-5.5195,-5.5197,-5.5184,-5.5189,-5.522,-5.5242,-5.5269,-5.5367,-5.5364,-5.5416,-5.5434,-5.545,-5.5462,-5.5515,-5.5538,-5.529,-5.529,-5.529,0,0,-5.5211,-5.5203,-5.5231,-5.5258,-5.5258,-5.5301,-5.5209,-5.5257,-5.5288,-5.5204,-5.5269,-5.526,-5.5262,-5.5347,-5.5383,-5.5343,-5.553,-5.5463,-5.5475,-5.5479,-5.5528,-5.5551,-5.5572,-5.5297,-5.5296,-5.5295,0,0,-5.5363,-5.5361,-5.5428,-5.5431,-5.5434,-5.5411,-5.5427,-5.5416,-5.5407,-5.5472,-5.5411,-5.5446,-5.5501,-5.5505,-5.5515,-5.5672,-5.5623,-5.5682,-5.578,-5.5832,-5.5852,-5.5869,-5.5926,-5.5947,-5.5694,-5.5694,-5.5694,0,-5.5452,-5.5513,-5.5468,-5.5521,-5.5535,-5.5463,-5.553,-5.5535,-5.5546,-5.5558,-5.5513,-5.5582,-5.5578,-5.5663,-5.5702,-5.5711,-5.5729,-5.5683,-5.5853,-5.5869,-5.5885,-5.5939,-5.596,-5.5701,-5.57,-5.57,-5.5699,0,-5.5623,-5.5667,-5.572,-5.5735,-5.5755,-5.5815,-5.5779,-5.5804,-5.5771,-5.5753,-5.582,-5.5813,-5.5839,-5.5856,-5.5823,-5.5938,-5.5914,-5.5862,-5.5783,-5.5916,-5.5966,-5.5987,-5.5712,-5.5709,-5.5707,-5.5705,0,0,-5.5843,-5.5833,-5.5854,-5.5861,-5.5859,-5.5892,-5.5949,-5.5975,-5.5999,-5.6009,-5.6057,-5.6106,-5.6058,-5.6069,-5.6036,-5.6082,-5.6209,-5.6025,-5.6024,-5.606,-5.6337,-5.6377,-5.6402,-5.6177,-5.6181,-5.6184,-5.6338,0,-5.5992,-5.609,-5.6052,-5.6153,-5.6194,-5.6127,-5.6177,-5.6182,-5.6167,-5.6199,-5.6182,-5.6218,-5.6152,-5.6159,-5.6201,-5.6185,-5.6264,-5.6173,-5.6221,-5.6223,-5.6224,-5.6428,-5.6469,-5.6615,-5.6357,-5.636,-5.6362,0,-5.6179,-5.6199,-5.6305,-5.6299,-5.6314,-5.636,-5.6382,-5.6413,-5.6418,-5.6403,-5.6417,-5.6375,-5.6431,-5.6352,-5.6429,-5.6368,-5.6385,-5.6381,-5.6385,-5.6389,-5.6302,-5.6438,-5.666,-5.6683,-5.6392,-5.639,-5.6388,0,-5.6331,-5.6384,-5.6455,-5.6463,-5.6456,-5.6491,-5.6489,-5.649,-5.6509,-5.6527,-5.6539,-5.6564,-5.6578,-5.6598,-5.6564,-5.6509,-5.6647,-5.6564,-5.6637,-5.6639,-5.667,-5.6668,-5.6899,-5.668,-5.6679,-5.6679,-5.6678,0,-5.6502,-5.657,-5.6524,-5.6568,-5.6642,-5.6598,-5.6672,-5.6663,-5.6665,-5.6706,-5.6648,-5.6688,-5.664,-5.6675,-5.6648,-5.6717,-5.6723,-5.6714,-5.6706,-5.672,-5.6722,-5.6731,-5.6721,-5.6685,-5.6683,-5.6682,-5.6681,0,-5.6684,-5.6656,-5.6729,-5.6718,-5.6717,-5.6773,-5.6763,-5.6803,-5.6785,-5.6838,-5.6848,-5.6819,-5.6857,-5.6825,-5.6862,-5.6844,-5.6936,-5.6913,-5.6936,-5.693,-5.7005,-5.6999,-5.7251,-5.7282,-5.7042,-5.7044,-5.7046,0,-5.6796,-5.6847,-5.6842,-5.6866,-5.6869,-5.6908,-5.6928,-5.6886,-5.6909,-5.6919,-5.6958,-5.6992,-5.7017,-5.7083,-5.7065,-5.7093,-5.7071,-5.7158,-5.7075,-5.7088,-5.7074,-5.7072,-5.7078,-5.7175,-5.7178,-5.718,-5.7182,0,-5.6997,-5.6981,-5.7012,-5.7039,-5.7064,-5.7083,-5.7097,-5.712,-5.7078,-5.7106,-5.7146,-5.7166,-5.7205,-5.724,-5.7263,-5.7261,-5.7216,-5.7208,-5.7227,-5.7242,-5.7253,-5.7249,-5.6983,-5.7203,-5.7201,-5.7199,-5.7198,-5.7197,-5.7148,-5.7191,-5.7195,-5.7232,-5.7239,-5.7254,-5.7292,-5.7279,-5.7312,-5.7341,-5.7314,-5.7363,-5.7367,-5.7394,-5.7398,-5.7435,-5.7399,-5.7426,-5.7433,-5.7441,-5.7452,-5.7247,-5.7439,-5.7439,-5.7438,-5.7437,-5.7437,0,-5.7347,-5.7347,-5.7382,-5.7404,-5.7434,-5.7389,-5.7403,-5.7431,-5.7474,-5.7483,-5.7509,-5.7556,-5.759,-5.7576,-5.7606,-5.7639,-5.7619,-5.7648,-5.7646,-5.7647,-5.7482,-5.7463,-5.7664,-5.7664,-5.7664,-5.7664,-5.7664,-5.7664,-5.7454,-5.7526,-5.7511,-5.7585,-5.7584,-5.7632,-5.7644,-5.7658,-5.7665,-5.772,-5.7749,-5.774,-5.774,-5.777,-5.78,-5.7795,-5.7809,-5.7847,-5.7834,-5.7681,-5.7658,-5.7637,-5.7619,-5.785,-5.785,-5.7996,-5.7998,-5.7999]},{"header":{"parameterUnit":"m.s-1","parameterCategory":1,"la1":30.2991,"la2":30.254,"lo1":-89.0895,"lo2":-89.0444,"dy":0.0017,"dx":0.0017,"nx":28,"ny":28,"refTime":"2024-10-05T03:00:00:Z","depth":0,"parameterNumber":3,"parameterNumberName":"V-component_of_WINDS"},"data":[0,0,0,0,0,0,0,0,0,0,0,0,0,0,0,0,0,0,0,0,0,0,0,0,0,0,0,0,0,0,0,0,0,0,0,0,0,0,0,0,0,0,0,0,0,0,0,0,0,0,0,0,0,0,0,0,0,0,-3.3267,-3.3267,0,-3.3297,-3.3298,-3.3298,-3.3292,-3.3292,-3.3291,-3.3291,-3.3319,-3.332,-3.3321,0,0,0,0,0,0,0,0,0,0,0,0,0,-3.3201,-3.3202,-3.3267,-3.3267,-3.3267,-3.3297,-3.3298,-3.3298,-3.3292,-3.3292,-3.3291,-3.329,-3.3319,-3.332,-3.3322,0,0,0,0,0,0,0,0,0,0,0,0,0,-3.323,-3.3202,-3.3267,-3.3268,-3.3269,-3.3297,-3.3298,-3.3298,-3.3292,-3.3292,-3.3291,-3.329,-3.3318,-3.332,-3.3322,-3.3349,0,0,-3.3328,-3.3328,0,0,0,0,0,0,0,0,-3.3228,-3.3232,-3.3268,-3.3268,-3.3269,-3.329,-3.3285,-3.3315,-3.3293,-3.3283,-3.3291,-3.329,-3.331,-3.3312,-3.332,-3.3351,-3.3352,-3.3328,-3.3329,-3.333,-3.333,0,0,0,0,0,0,0,-3.3226,-3.3231,-3.3279,-3.3268,-3.3269,-3.3267,-3.327,-3.329,-3.3301,-3.3284,-3.3284,-3.3288,-3.331,-3.3318,-3.332,-3.3352,-3.3328,-3.3329,-3.333,-3.3331,-3.3408,-3.3409,0,0,0,0,0,0,-3.3224,-3.3229,-3.3278,-3.328,-3.3246,-3.3268,-3.3272,-3.3284,-3.33,-3.3302,-3.3288,-3.3287,-3.3315,-3.3318,-3.3321,-3.3356,-3.333,-3.3331,-3.3332,-3.3408,-3.3409,-3.341,0,0,0,0,0,0,-3.3223,-3.3229,-3.3276,-3.3254,-3.326,-3.327,-3.3284,-3.3285,-3.3293,-3.3304,-3.3305,-3.3295,-3.3315,-3.3319,-3.3343,-3.3357,-3.3332,-3.3334,-3.3406,-3.3408,-3.3409,-3.3424,0,0,0,0,0,0,-3.3221,-3.3228,-3.3239,-3.3255,-3.3262,-3.3298,-3.3285,-3.3286,-3.3297,-3.3296,-3.331,-3.3312,-3.3314,-3.334,-3.3345,-3.3359,-3.3335,-3.3405,-3.3407,-3.3409,-3.3423,-3.3426,-3.3429,0,0,0,0,0,-3.3219,-3.3242,-3.324,-3.3246,-3.3276,-3.3299,-3.3303,-3.3306,-3.3298,-3.3309,-3.3316,-3.3311,-3.3354,-3.3343,-3.3348,-3.3363,-3.3404,-3.3407,-3.3409,-3.3421,-3.3425,-3.3429,0,0,0,0,0,0,-3.3226,-3.3244,-3.3242,-3.3271,-3.3284,-3.3298,-3.3312,-3.331,-3.3325,-3.3324,-3.3326,-3.3329,-3.3354,-3.336,-3.3347,-3.3391,-3.3378,-3.3381,-3.3386,-3.339,-3.3393,-3.3391,-3.3337,0,0,0,0,0,-3.3232,-3.325,-3.3264,-3.3288,-3.3294,-3.3302,-3.3312,-3.3314,-3.3327,-3.3332,-3.3341,-3.3353,-3.3369,-3.3379,-3.3395,-3.3423,-3.3427,-3.3436,-3.3439,-3.3442,-3.3445,-3.3461,-3.3465,-3.3416,-3.3416,-3.3416,0,0,-3.3242,-3.3254,-3.3265,-3.329,-3.33,-3.3318,-3.3307,-3.3326,-3.334,-3.3335,-3.3359,-3.3365,-3.3379,-3.3406,-3.3418,-3.3412,-3.3459,-3.3444,-3.3446,-3.3448,-3.3463,-3.3468,-3.3472,-3.3418,-3.3418,-3.3417,0,0,-3.3272,-3.3282,-3.3304,-3.3315,-3.3331,-3.3336,-3.3341,-3.3356,-3.336,-3.3385,-3.3382,-3.3397,-3.3425,-3.3435,-3.3444,-3.3477,-3.3474,-3.3482,-3.3499,-3.3514,-3.3518,-3.3522,-3.3535,-3.3539,-3.3484,-3.3484,-3.3484,0,-3.3283,-3.3311,-3.3315,-3.3336,-3.3347,-3.3344,-3.3366,-3.3375,-3.3395,-3.3402,-3.3395,-3.3431,-3.3439,-3.3469,-3.3477,-3.3484,-3.349,-3.3481,-3.3517,-3.3521,-3.3524,-3.3537,-3.3541,-3.3485,-3.3485,-3.3485,-3.3485,0,-3.3325,-3.3344,-3.336,-3.3381,-3.3393,-3.3414,-3.342,-3.3432,-3.3432,-3.3438,-3.3463,-3.3473,-3.3491,-3.3498,-3.3498,-3.3528,-3.3524,-3.3517,-3.3505,-3.353,-3.3542,-3.3546,-3.3487,-3.3486,-3.3486,-3.3486,0,0,-3.3361,-3.3384,-3.3389,-3.3399,-3.3416,-3.3431,-3.3452,-3.347,-3.3481,-3.3494,-3.3512,-3.3535,-3.353,-3.354,-3.354,-3.3554,-3.3581,-3.3546,-3.3546,-3.3553,-3.3615,-3.3621,-3.3627,-3.3579,-3.3579,-3.358,-3.3615,0,-3.3392,-3.3431,-3.3435,-3.3468,-3.3487,-3.3484,-3.3502,-3.3514,-3.352,-3.3535,-3.3541,-3.3559,-3.3549,-3.3555,-3.3568,-3.3575,-3.3594,-3.3572,-3.3595,-3.3596,-3.3593,-3.3633,-3.3639,-3.3671,-3.3619,-3.362,-3.362,0,-3.3435,-3.3451,-3.3487,-3.3503,-3.3511,-3.3527,-3.3545,-3.356,-3.3573,-3.3577,-3.3588,-3.3587,-3.3608,-3.3594,-3.3622,-3.3608,-3.3617,-3.3621,-3.3623,-3.3626,-3.361,-3.3638,-3.3681,-3.3686,-3.3627,-3.3627,-3.3626,0,-3.3459,-3.349,-3.3516,-3.3524,-3.3542,-3.3554,-3.3562,-3.3575,-3.3586,-3.3601,-3.3608,-3.3624,-3.3634,-3.3646,-3.365,-3.3639,-3.3679,-3.3665,-3.3682,-3.3682,-3.3691,-3.3691,-3.3738,-3.3695,-3.3695,-3.3695,-3.3695,0,-3.3495,-3.3518,-3.3527,-3.3543,-3.3568,-3.3571,-3.3596,-3.3603,-3.3614,-3.3631,-3.3629,-3.3644,-3.3647,-3.3663,-3.3666,-3.369,-3.3693,-3.3696,-3.3697,-3.3698,-3.3697,-3.3705,-3.3703,-3.3696,-3.3696,-3.3696,-3.3696,0,-3.3527,-3.3534,-3.3562,-3.3578,-3.3582,-3.36,-3.3613,-3.3628,-3.3633,-3.3654,-3.3659,-3.3667,-3.3686,-3.3691,-3.3713,-3.3714,-3.3743,-3.3741,-3.3739,-3.3739,-3.3757,-3.3755,-3.3811,-3.3819,-3.377,-3.377,-3.377,0,-3.355,-3.3568,-3.3585,-3.3597,-3.3606,-3.3625,-3.3637,-3.364,-3.3653,-3.367,-3.3683,-3.3701,-3.3717,-3.3747,-3.3754,-3.3771,-3.377,-3.3788,-3.3772,-3.3772,-3.3772,-3.3771,-3.3773,-3.3791,-3.3792,-3.3792,-3.3793,0,-3.3591,-3.3594,-3.3612,-3.3631,-3.3646,-3.366,-3.3674,-3.3684,-3.3689,-3.3703,-3.3723,-3.3735,-3.3758,-3.3777,-3.3794,-3.3801,-3.3798,-3.3797,-3.3803,-3.3804,-3.3803,-3.3805,-3.3748,-3.3796,-3.3796,-3.3796,-3.3796,-3.3795,-3.3621,-3.3636,-3.3652,-3.3672,-3.3683,-3.3696,-3.3712,-3.3719,-3.3736,-3.3756,-3.3757,-3.3779,-3.3791,-3.3814,-3.3822,-3.3839,-3.3833,-3.384,-3.3843,-3.3845,-3.3847,-3.3799,-3.3842,-3.3842,-3.3842,-3.3842,-3.3841,0,-3.3663,-3.3673,-3.3691,-3.3711,-3.3727,-3.3723,-3.3739,-3.3752,-3.3771,-3.3784,-3.38,-3.3823,-3.3841,-3.385,-3.3867,-3.3879,-3.3878,-3.3884,-3.3884,-3.3885,-3.385,-3.3845,-3.3884,-3.3884,-3.3884,-3.3884,-3.3884,-3.3884,-3.3687,-3.3714,-3.3718,-3.375,-3.3759,-3.3782,-3.3791,-3.3803,-3.3814,-3.384,-3.3856,-3.3861,-3.3873,-3.3891,-3.3908,-3.391,-3.3917,-3.3923,-3.3925,-3.3892,-3.3888,-3.3884,-3.3879,-3.3925,-3.3925,-3.3959,-3.3959,-3.3959]}]]